Location: Unspecified
(0.0000°N, 0.0000°E)
Time: 01:32:10
(UTC+00:00)

Explorer 25 - Pass Details

Date: 08 March 2026
Orbit: 523 x 2264 km, 81.3° (Epoch: 14 April)

Event Time Altitude Azimuth Distance (km) Brightness Sun altitude
Rises 20:31:21 0° 211° (SSW) 5,824 12.9 -35.0°
Reaches altitude 10° 20:36:05 10° 223° (SW) 4,732 12.5 -36.2°
Maximum altitude 20:44:51 23° 268° (W) 3,434 11.8 -38.4°
Drops below altitude 10° 20:52:23 10° 316° (NW) 3,935 12.0 -40.3°
Sets 20:55:57 0° 331° (NNW) 4,650 12.3 -41.2°
